Regional Weather Roundup
Issued by NWS

Home | Current Version | Previous Version | Text Only | Print | Product List | Glossary Off
Versions: 1 2 3 4 5 6 7 8 9 10 11 12 13 14 15 16 17 18 19 20 21 22 23 24 25 26 27 28 29 30 31 32 33 34 35 36 37 38 39 40 41 42 43 44 45 46 47 48 49 50

000
ASUS43 KLOT 061803
RWRIL

ILLINOIS REGIONAL WEATHER ROUNDUP
NATIONAL WEATHER SERVICE CHICAGO/ROMEOVILLE IL
100 PM CDT WED MAY 06 2015

NOTE: "FAIR" INDICATES FEW OR NO CLOUDS BELOW 12,000 FEET WITH NO
SIGNIFICANT WEATHER AND/OR OBSTRUCTIONS TO VISIBILITY.

* THESE STATIONS ARE NOT UNDER NWS QUALITY CONTROL. THEY ALSO MAY NOT
  REPORT WEATHER SUCH AS PRECIPITATION OR FOG.

ILZ001-002-007-009-015-016-024-061900-
NORTHWEST ILLINOIS

CITY           SKY/WX    TMP DP  RH WIND       PRES   REMARKS
MOLINE         FAIR      81  56  42 S17G23    30.05F HX  81
6HR MIN TEMP:  57; 6HR MAX TEMP:  81;

STERLING*      FAIR      77  64  65 SE7       30.10F
$$

ILZ003-004-008-010-011-017-018-061900-
NORTH CENTRAL ILLINOIS

CITY           SKY/WX    TMP DP  RH WIND       PRES   REMARKS
ROCKFORD       PTSUNNY   72  62  71 SE8       30.14F
6HR MIN TEMP:  51; 6HR MAX TEMP:  73;

$$

ILZ005-006-012>014-019>023-061900-
NORTHEAST ILLINOIS

CITY           SKY/WX    TMP DP  RH WIND       PRES   REMARKS
CHICAGO-OHARE  MOSUNNY   73  60  63 SE5       30.14F
6HR MIN TEMP:  49; 6HR MAX TEMP:  73;

CHICAGO-MIDWAY MOSUNNY   78  62  57 S3        30.14F HAZE    HX  80
6HR MIN TEMP:  53; 6HR MAX TEMP:  78;

AURORA         PTSUNNY   74  62  66 S8        30.14F HAZE
6HR MIN TEMP:  53; 6HR MAX TEMP:  74;

WAUKEGAN       PTSUNNY   56  51  84 E6        30.17F
6HR MIN TEMP:  45; 6HR MAX TEMP:  56;

DUPAGE AIRPORT MOSUNNY   73  61  65 S7        30.14F
6HR MIN TEMP:  51; 6HR MAX TEMP:  74;

WHEELING       MOSUNNY   67  55  65 NE8       30.17F
6HR MIN TEMP:  47; 6HR MAX TEMP:  68;

NORTHERLY ISL    N/A     52  51  97 N7          N/A
$$

LMZ740>746-061900-
SOUTHERN LAKE MICHIGAN

STATION/POSITION SKY/WX   TEMP    WIND        PRES    VSBY  WAVE
                          AIR SEA DIR/SP/G                  HT/PER
                          (F)     (DEG/KT/KT) (MB)    (MI)  (FT/S)
HARRISON CRIB              47      30/  7/  7   N/A
BURNHAM HARBOR             52      30/  4/  5   N/A
CALUMET HARBOR             54      40/  4/  6   N/A
BURNS HARBOR               61      70/  4/  4 1022.0F
MICHIGAN CITY              66     340/  4/  5   N/A
MICHIGAN CITY 6N           56 54   20/  4/  4   N/A           0
ST. JOSEPH                 55 53  360/  6/  6   N/A           0
$$

ILZ025>027-034>036-040-047-049-050-058-095>099-061900-
WEST-CENTRAL ILLINOIS

CITY           SKY/WX    TMP DP  RH WIND       PRES   REMARKS
QUINCY         FAIR      81  55  40 SW20G30   30.05F HX  81
$$

ILZ028>032-037-038-041>044-048-051>054-059>061-061900-
CENTRAL ILLINOIS

CITY           SKY/WX    TMP DP  RH WIND       PRES   REMARKS
DECATUR        FAIR      83  50  31 S9G25     30.13F HX  81
PEORIA         FAIR      84  53  34 S17G25    30.09F HX  82
6HR MIN TEMP:  62; 6HR MAX TEMP:  84;

SPRINGFIELD    FAIR      86  52  30 S16G26    30.10F HX  84
6HR MIN TEMP:  67; 6HR MAX TEMP:  86;

TAYLORVILLE    NOT AVBL
$$

ILZ033-039-045-046-055>057-062-063-061900-
EAST-CENTRAL ILLINOIS

CITY           SKY/WX    TMP DP  RH WIND       PRES   REMARKS
CHAMPAIGN      MOSUNNY   86  46  24 SW16G22   30.14F HX  83
MATTOON        FAIR      82  54  37 S9        30.14F HX  81
$$

ILZ079-100>102-061900-
SOUTHWEST ILLINOIS

CITY           SKY/WX    TMP DP  RH WIND       PRES   REMARKS
ALTON          MOSUNNY   82  54  36 S14G23    30.11F HX  81
CAHOKIA*       FAIR      85  55  35 S12G20    30.09F HX  83
$$

ILZ064>066-069>071-074>076-080>082-084>086-088>090-092>094-061900-
SOUTH-CENTRAL ILLINOIS

CITY           SKY/WX    TMP DP  RH WIND       PRES   REMARKS
CARBONDALE     FAIR      83  54  36 S13       30.13F HX  82
6HR MIN TEMP:  58; 6HR MAX TEMP:  84;

MARION         MOSUNNY   82  59  44 S15       30.14F HX  82
MT. VERNON     FAIR     N/A N/A N/A S8        30.14F
$$

ILZ067-068-072-073-078-083-087-091-061900-
SOUTHEAST ILLINOIS

CITY           SKY/WX    TMP DP  RH WIND       PRES   REMARKS
LAWRENCEVILLE  MOSUNNY   85  53  33 S13       30.15F HX  83
$$

ABBREVIATIONS USED IN REMARKS
   TC - TEMPERATURE IN CELSIUS
  WCI - WIND CHILL INDEX
   HX - HEAT INDEX
  VSB - VISIBILITY
$$




USA.gov is the U.S. government's official web portal to all federal, state and local government web resources and services.